KE7JVX-3 Weather Reports


time (UTC)temp
F
wind
direction
speed
knots
gust
knots
rain 1hr
in
rain 24hr
in
rain mn
in
humidity
%
barometer
mb
20260504014316 54 259 19.1 26.9 0.00 0.00 0.00 10 1009.9
20260504013927 54 259 19.1 26.9 0.00 0.00 0.00 10 1009.9
20260504013410 55 255 19.1 27.8 0.00 0.00 0.00 9 1009.9
20260504012927 55 255 19.1 27.8 0.00 0.00 0.00 9 1009.9
20260504012241 56 249 16.5 29.5 0.00 0.00 0.00 9 1010.1
20260504011927 56 249 16.5 29.5 0.00 0.00 0.00 9 1010.1
20260504010927 56 256 20.0 32.2 0.00 0.00 0.00 10 1010.1
20260504005927 56 245 20.9 28.7 0.00 0.00 0.00 13 1010.0
20260504005227 56 249 15.6 26.1 0.00 0.00 0.00 19 1010.2
20260504004927 56 249 15.6 26.1 0.00 0.00 0.00 19 1010.2
20260504004311 56 251 13.0 22.6 0.00 0.00 0.00 21 1010.3
20260504003927 56 251 13.0 22.6 0.00 0.00 0.00 21 1010.3
20260504003339 55 245 13.9 20.9 0.00 0.00 0.00 24 1010.4
20260504002927 55 245 13.9 20.9 0.00 0.00 0.00 24 1010.4
20260504001927 55 248 15.6 24.3 0.00 0.00 0.00 24 1010.5
20260504000927 55 246 13.9 22.6 0.00 0.00 0.00 24 1010.4
20260503235927 56 244 14.8 23.5 0.00 0.00 0.00 23 1010.5
20260503234927 58 236 13.9 26.9 0.00 0.00 0.00 22 1010.4
20260503234410 57 248 13.9 28.7 0.00 0.00 0.00 20 1010.5
20260503233927 57 248 13.9 28.7 0.00 0.00 0.00 20 1010.5
20260503232927 56 254 18.2 31.3 0.00 0.00 0.00 21 1010.7
20260503231927 57 258 25.2 32.2 0.00 0.00 0.00 19 1010.4
20260503230927 56 243 17.4 30.4 0.00 0.00 0.00 19 1010.5
20260503230259 57 253 22.6 34.8 0.00 0.00 0.00 17 1010.5
20260503225927 57 253 22.6 34.8 0.00 0.00 0.00 17 1010.5
20260503225550 57 253 21.7 29.5 0.00 0.00 0.00 17 1010.7
20260503224927 57 253 21.7 29.5 0.00 0.00 0.00 17 1010.7
20260503224616 56 248 17.4 26.9 0.00 0.00 0.00 18 1010.9
20260503223927 56 248 17.4 26.9 0.00 0.00 0.00 18 1010.9
20260503222928 57 249 16.5 23.5 0.00 0.00 0.00 18 1011.0
20260503222304 57 246 11.3 27.8 0.00 0.00 0.00 20 1011.1
20260503221927 57 246 11.3 27.8 0.00 0.00 0.00 20 1011.1
20260503221425 58 251 19.1 29.5 0.00 0.00 0.00 17 1011.1
20260503220927 58 251 19.1 29.5 0.00 0.00 0.00 17 1011.1
20260503220346 58 250 20.0 26.9 0.00 0.00 0.00 17 1011.4
20260503215927 58 250 20.0 26.9 0.00 0.00 0.00 17 1011.4
20260503215541 58 256 18.2 25.2 0.00 0.00 0.00 17 1011.3
20260503214927 58 256 18.2 25.2 0.00 0.00 0.00 17 1011.3
20260503213927 57 243 12.2 24.3 0.00 0.00 0.00 22 1011.6
20260503212927 57 251 16.5 29.5 0.00 0.00 0.00 23 1011.7
20260503211927 57 251 17.4 23.5 0.00 0.00 0.00 26 1011.8
20260503210927 55 236 6.1 18.2 0.00 0.00 0.00 32 1012.0
20260503205927 54 255 8.7 24.3 0.00 0.00 0.00 30 1012.1
20260503204928 57 248 14.8 21.7 0.00 0.00 0.00 28 1012.1
20260503203927 56 229 7.0 21.7 0.00 0.00 0.00 30 1012.2
20260503202927 56 251 13.9 20.9 0.00 0.00 0.00 29 1012.2
20260503201927 56 239 6.1 14.8 0.00 0.00 0.00 29 1012.4
20260503200927 56 229 7.0 20.9 0.00 0.00 0.00 31 1012.4
20260503195926 56 235 10.4 16.5 0.00 0.00 0.00 30 1012.4
20260503194928 56 243 8.7 18.2 0.00 0.00 0.00 29 1012.6
20260503193929 56 222 6.1 16.5 0.00 0.00 0.00 30 1012.7
20260503192927 56 227 7.0 13.9 0.00 0.00 0.00 31 1012.7
20260503191927 56 243 6.1 15.6 0.00 0.00 0.00 31 1012.9
20260503190927 57 216 5.2 12.2 0.00 0.00 0.00 33 1012.9
20260503185928 56 203 5.2 11.3 0.00 0.00 0.00 33 1013.0
20260503184928 54 200 4.3 12.2 0.00 0.00 0.00 36 1013.1
20260503183927 54 202 4.3 15.6 0.00 0.00 0.00 37 1013.1
20260503182927 53 199 6.1 11.3 0.00 0.00 0.00 38 1013.1
20260503181928 53 227 7.8 13.9 0.00 0.00 0.00 36 1013.2
20260503180927 54 206 5.2 13.9 0.00 0.00 0.00 36 1013.2
20260503175927 53 186 6.1 13.0 0.00 0.00 0.00 38 1013.4
20260503174926 52 200 5.2 12.2 0.00 0.00 0.00 41 1013.5
20260503173927 52 181 7.8 13.0 0.00 0.00 0.00 39 1013.4
20260503172926 51 188 5.2 12.2 0.00 0.00 0.00 41 1013.5
20260503171927 51 193 4.3 12.2 0.00 0.00 0.00 42 1013.5
20260503170927 50 201 4.3 11.3 0.00 0.00 0.00 43 1013.4
20260503150926 48 162 6.1 11.3 0.00 0.00 0.00 42 1013.4
20260503130927 46 126 3.5 9.6 0.00 0.00 0.00 45 1012.8
20260503072928 46 121 5.2 11.3 0.00 0.00 0.00 41 1013.6
20260503071928 46 133 4.3 11.3 0.00 0.00 0.00 39 1013.5
20260503070928 46 130 5.2 11.3 0.00 0.00 0.00 39 1013.5
20260503054930 47 135 3.5 7.8 0.00 0.00 0.00 32 1013.4
20260503053928 47 127 4.3 8.7 0.00 0.00 0.00 32 1013.5
20260503052928 47 146 3.5 8.7 0.00 0.00 0.00 31 1013.5
20260503051928 48 138 3.5 8.7 0.00 0.00 0.00 31 1013.5
20260503050928 48 139 4.3 10.4 0.00 0.00 0.00 31 1013.4
20260503045928 48 120 6.1 10.4 0.00 0.00 0.00 31 1013.3
20260503044928 48 119 5.2 10.4 0.00 0.00 0.00 31 1013.4
20260503043930 48 120 4.3 7.8 0.00 0.00 0.00 31 1013.3
20260503042928 48 119 4.3 8.7 0.00 0.00 0.00 30 1013.2
20260503041928 48 137 2.6 7.8 0.00 0.00 0.00 30 1013.1
20260503040928 48 151 4.3 8.7 0.00 0.00 0.00 30 1013.2
20260503035928 48 122 3.5 8.7 0.00 0.00 0.00 29 1013.0
20260503035346 48 135 4.3 8.7 0.00 0.00 0.00 29 1012.9
20260503034933 48 135 4.3 8.7 0.00 0.00 0.00 29 1012.9
20260503033929 48 140 3.5 9.6 0.00 0.00 0.00 29 1012.9
20260503033215 48 131 3.5 9.6 0.00 0.00 0.00 29 1012.9
20260503032929 48 131 3.5 9.6 0.00 0.00 0.00 29 1012.9
20260503032114 49 121 3.5 9.6 0.00 0.00 0.00 28 1012.8
20260503031928 49 121 3.5 9.6 0.00 0.00 0.00 28 1012.8
20260503030928 49 124 5.2 10.4 0.00 0.00 0.00 28 1012.7
20260503025427 49 123 5.2 14.8 0.00 0.00 0.00 26 1012.7
20260503024427 49 112 7.8 13.0 0.00 0.00 0.00 26 1012.6
20260503023427 49 117 7.0 10.4 0.00 0.00 0.00 26 1012.5
20260503022427 49 122 4.3 9.6 0.00 0.00 0.00 27 1012.5
20260503021430 49 130 2.6 7.8 0.00 0.00 0.00 27 1012.5
20260503020427 49 146 3.5 7.8 0.00 0.00 0.00 26 1012.5
20260503015427 50 144 1.7 7.8 0.00 0.00 0.00 26 1012.5